,,,PA_Meas_PMT16A,,PR_Meas_QMR101_102,,RH_Meas_QMH101,,SR_Meas_QMS101,,TA_Meas_QMH101,,GenWind,,GenWind,
date,time,status,PA,status,PR,status,RH,status,SR,status,TA,status,DirAvg,status,SpdAvg,
2009-02-09, 00:00:04,VALID,1000.83,VALID,0,VALID,93.562,VALID,0,VALID,23.7811,VALID,129,VALID,0.346484,
2009-02-09, 00:01:04,VALID,1000.84,VALID,0,VALID,93.5697,VALID,0.112286,VALID,23.7811,VALID,123,VALID,0.564453,
2009-02-09, 00:02:04,VALID,1000.84,VALID,0,VALID,93.562,VALID,0,VALID,23.7811,VALID,110,VALID,0.750391,
2009-02-09, 00:03:04,VALID,1000.85,VALID,0,VALID,93.5697,VALID,0,VALID,23.7402,VALID,100,VALID,0.787109,
2009-02-09, 00:04:04,VALID,1000.83,VALID,0,VALID,93.646,VALID,0,VALID,23.7402,VALID,99,VALID,0.888281,
2009-02-09, 00:05:04,VALID,1000.84,VALID,0,VALID,93.7604,VALID,0,VALID,23.7811,VALID,96,VALID,0.78125,
2009-02-09, 00:06:04,VALID,1000.84,VALID,0,VALID,93.7757,VALID,0,VALID,23.7616,VALID,99,VALID,0.563281,
2009-02-09, 00:07:04,VALID,1000.82,VALID,0,VALID,93.7375,VALID,0,VALID,23.7402,VALID,99,VALID,0.430469,
2009-02-09, 00:08:04,VALID,1000.77,VALID,0,VALID,93.6841,VALID,0,VALID,23.7402,VALID,98,VALID,0.342187,
2009-02-09, 00:09:04,VALID,1000.75,VALID,0,VALID,93.6994,VALID,0,VALID,23.7225,VALID,75,VALID,0.361719,
2009-02-09, 00:10:04,VALID,1000.73,VALID,0,VALID,93.7146,VALID,0,VALID,23.7225,VALID,75,VALID,0.561328,
2009-02-09, 00:11:04,VALID,1000.72,VALID,0,VALID,93.6841,VALID,0.112286,VALID,23.7012,VALID,75,VALID,0.598437,
2009-02-09, 00:12:04,VALID,1000.72,VALID,0,VALID,93.646,VALID,0,VALID,23.703,VALID,78,VALID,0.730078,
2009-02-09, 00:13:04,VALID,1000.7,VALID,0,VALID,93.562,VALID,0,VALID,23.7225,VALID,75,VALID,0.814453,
2009-02-09, 00:14:04,VALID,1000.68,VALID,0,VALID,93.4705,VALID,0,VALID,23.7225,VALID,83,VALID,0.630469,
2009-02-09, 00:15:04,VALID,1000.68,VALID,0,VALID,93.4094,VALID,0,VALID,23.7225,VALID,78,VALID,0.653516,
2009-02-09, 00:16:04,VALID,1000.7,VALID,0,VALID,93.3103,VALID,0,VALID,23.742,VALID,74,VALID,0.485938,
2009-02-09, 00:17:04,VALID,1000.66,VALID,0,VALID,93.2874,VALID,0,VALID,23.742,VALID,67,VALID,0.435156,
2009-02-09, 00:18:04,VALID,1000.67,VALID,0,VALID,93.2416,VALID,0,VALID,23.7616,VALID,67,VALID,0.445703,
2009-02-09, 00:19:04,VALID,1000.66,VALID,0,VALID,93.1424,VALID,0,VALID,23.7597,VALID,67,VALID,0.180469,
2009-02-09, 00:20:04,VALID,1000.63,VALID,0,VALID,93.1195,VALID,0,VALID,23.7616,VALID,67,VALID,0.0824219,
2009-02-09, 00:21:04,VALID,1000.69,VALID,0,VALID,93.1348,VALID,0,VALID,23.7402,VALID,67,VALID,0.136328,
2009-02-09, 00:22:04,VALID,1000.66,VALID,0,VALID,93.1348,VALID,0,VALID,23.7616,VALID,67,VALID,0.265625,
2009-02-09, 00:23:04,VALID,1000.66,VALID,0,VALID,93.1195,VALID,0,VALID,23.7616,VALID,67,VALID,0.334766,
2009-02-09, 00:24:04,VALID,1000.67,VALID,0,VALID,93.089,VALID,0,VALID,23.7597,VALID,66,VALID,0.476563,
2009-02-09, 00:25:04,VALID,1000.67,VALID,0,VALID,93.0508,VALID,0,VALID,23.7616,VALID,66,VALID,0.376953,
2009-02-09, 00:26:04,VALID,1000.66,VALID,0,VALID,93.0814,VALID,0,VALID,23.7829,VALID,56,VALID,0.433203,
2009-02-09, 00:27:04,VALID,1000.68,VALID,0,VALID,92.9517,VALID,0,VALID,23.7616,VALID,52,VALID,0.570703,
2009-02-09, 00:28:04,VALID,1000.64,VALID,0,VALID,93.1271,VALID,0,VALID,23.8006,VALID,40,VALID,0.840234,
2009-02-09, 00:29:04,VALID,1000.63,VALID,0,VALID,93.0661,VALID,0,VALID,23.8006,VALID,40,VALID,0.546094,
2009-02-09, 00:30:04,VALID,1000.62,VALID,0,VALID,93.0432,VALID,0,VALID,23.8201,VALID,67,VALID,0.597266,
2009-02-09, 00:31:04,VALID,1000.6,VALID,0,VALID,92.944,VALID,0,VALID,23.8201,VALID,47,VALID,0.366797,
2009-02-09, 00:32:04,VALID,1000.63,VALID,0,VALID,92.9517,VALID,0,VALID,23.8201,VALID,40,VALID,0.609375,
2009-02-09, 00:33:04,VALID,1000.6,VALID,0,VALID,93.0508,VALID,0,VALID,23.7597,VALID,16,VALID,0.583594,
2009-02-09, 00:34:04,VALID,1000.61,VALID,0,VALID,93.1805,VALID,0,VALID,23.7402,VALID,16,VALID,0.625,
2009-02-09, 00:35:04,VALID,1000.6,VALID,0,VALID,93.3026,VALID,0,VALID,23.7207,VALID,16,VALID,0.487109,
2009-02-09, 00:36:04,VALID,1000.61,VALID,0,VALID,93.4857,VALID,0.112286,VALID,23.6817,VALID,16,VALID,0.522656,
2009-02-09, 00:37:04,VALID,1000.61,VALID,0,VALID,93.6765,VALID,0,VALID,23.6622,VALID,16,VALID,0.700781,
2009-02-09, 00:38:04,VALID,1000.6,VALID,0,VALID,93.7299,VALID,0,VALID,23.6427,VALID,16,VALID,0.807813,
2009-02-09, 00:39:04,VALID,1000.62,VALID,0,VALID,93.6154,VALID,0,VALID,23.625,VALID,16,VALID,0.651172,
2009-02-09, 00:40:04,VALID,1000.63,VALID,0,VALID,93.7451,VALID,0,VALID,23.5859,VALID,353,VALID,0.705078,
2009-02-09, 00:41:04,VALID,1000.62,VALID,0,VALID,93.9435,VALID,0,VALID,23.5859,VALID,349,VALID,0.555078,
2009-02-09, 00:42:04,VALID,1000.62,VALID,0,VALID,94.0808,VALID,0,VALID,23.5664,VALID,349,VALID,0.284766,
2009-02-09, 00:43:04,VALID,1000.63,VALID,0,VALID,94.1724,VALID,0,VALID,23.5664,VALID,349,VALID,0.230469,
2009-02-09, 00:44:04,VALID,1000.63,VALID,0,VALID,94.2563,VALID,0,VALID,23.5664,VALID,14,VALID,0.640625,
2009-02-09, 00:45:04,VALID,1000.67,VALID,0,VALID,94.2105,VALID,0,VALID,23.5274,VALID,35,VALID,0.610547,
2009-02-09, 00:46:04,VALID,1000.65,VALID,0,VALID,94.2029,VALID,0,VALID,23.5469,VALID,34,VALID,0.498828,
2009-02-09, 00:47:04,VALID,1000.7,VALID,0,VALID,94.1495,VALID,0,VALID,23.5079,VALID,33,VALID,0.410547,
2009-02-09, 00:48:04,VALID,1000.67,VALID,0,VALID,94.2411,VALID,0,VALID,23.5079,VALID,30,VALID,0.474609,
2009-02-09, 00:49:04,VALID,1000.67,VALID,0,VALID,94.2868,VALID,0,VALID,23.5274,VALID,28,VALID,0.367969,
2009-02-09, 00:50:04,VALID,1000.64,VALID,0,VALID,94.3326,VALID,0,VALID,23.5079,VALID,28,VALID,0.0863281,
2009-02-09, 00:51:04,VALID,1000.59,VALID,0,VALID,94.386,VALID,0,VALID,23.5274,VALID,28,VALID,0.330469,
2009-02-09, 00:52:04,VALID,1000.62,VALID,0,VALID,94.3784,VALID,0,VALID,23.5274,VALID,28,VALID,0.689062,
2009-02-09, 00:53:04,VALID,1000.61,VALID,0,VALID,94.4242,VALID,0,VALID,23.5274,VALID,29,VALID,0.979297,
2009-02-09, 00:54:04,VALID,1000.59,VALID,0,VALID,94.3174,VALID,0,VALID,23.5274,VALID,29,VALID,1.03125,
2009-02-09, 00:55:04,VALID,1000.58,VALID,0,VALID,94.264,VALID,0,VALID,23.5274,VALID,31,VALID,1.20508,
2009-02-09, 00:56:04,VALID,1000.57,VALID,0,VALID,94.5005,VALID,0,VALID,23.5859,VALID,31,VALID,0.992188,
2009-02-09, 00:57:04,VALID,1000.59,VALID,0,VALID,94.4318,VALID,0,VALID,23.6054,VALID,57,VALID,0.679688,
2009-02-09, 00:58:04,VALID,1000.55,VALID,0,VALID,94.2258,VALID,0,VALID,23.6054,VALID,70,VALID,0.655469,
2009-02-09, 00:59:04,VALID,1000.53,VALID,0,VALID,94.1495,VALID,0,VALID,23.625,VALID,63,VALID,0.701563,
2009-02-09, 01:00:04,VALID,1000.54,VALID,0,VALID,94.1419,VALID,0,VALID,23.625,VALID,60,VALID,0.7625,
2009-02-09, 01:01:04,VALID,1000.51,VALID,0,VALID,94.18,VALID,0,VALID,23.625,VALID,59,VALID,0.662891,
2009-02-09, 01:02:04,VALID,1000.52,VALID,0,VALID,94.1877,VALID,0,VALID,23.625,VALID,59,VALID,0.516016,
2009-02-09, 01:03:04,VALID,1000.52,VALID,0,VALID,94.1419,VALID,0,VALID,23.6445,VALID,59,VALID,0.4625,
2009-02-09, 01:04:04,VALID,1000.54,VALID,0,VALID,94.1495,VALID,0,VALID,23.6445,VALID,59,VALID,0.518359,
2009-02-09, 01:05:04,VALID,1000.51,VALID,0,VALID,94.1037,VALID,0,VALID,23.6445,VALID,59,VALID,0.452344,
2009-02-09, 01:06:04,VALID,1000.55,VALID,0,VALID,94.0656,VALID,0,VALID,23.6445,VALID,59,VALID,0.427344,
2009-02-09, 01:07:04,VALID,1000.53,VALID,0,VALID,94.0351,VALID,0,VALID,23.625,VALID,59,VALID,0.0320312,
2009-02-09, 01:08:04,VALID,1000.53,VALID,0,VALID,94.0045,VALID,0,VALID,23.625,VALID,59,VALID,0.00585938,
2009-02-09, 01:09:04,VALID,1000.56,VALID,0,VALID,94.0045,VALID,0,VALID,23.6054,VALID,59,VALID,0,
2009-02-09, 01:10:04,VALID,1000.55,VALID,0,VALID,94.0198,VALID,0,VALID,23.5859,VALID,59,VALID,0,
2009-02-09, 01:11:04,VALID,1000.58,VALID,0,VALID,94.1037,VALID,0,VALID,23.5664,VALID,59,VALID,0.127344,
2009-02-09, 01:12:04,VALID,1000.61,VALID,0,VALID,94.2334,VALID,0,VALID,23.5664,VALID,59,VALID,0.250781,
2009-02-09, 01:13:04,VALID,1000.59,VALID,0,VALID,94.3097,VALID,0,VALID,23.5859,VALID,59,VALID,0.208984,
2009-02-09, 01:14:04,VALID,1000.6,VALID,0,VALID,94.3555,VALID,0,VALID,23.5859,VALID,59,VALID,0.108984,
2009-02-09, 01:15:04,VALID,1000.56,VALID,0,VALID,94.4089,VALID,0,VALID,23.5664,VALID,59,VALID,0.130078,
2009-02-09, 01:16:04,VALID,1000.59,VALID,0,VALID,94.4852,VALID,0,VALID,23.5859,VALID,59,VALID,0.163672,
2009-02-09, 01:17:04,VALID,1000.58,VALID,0,VALID,94.5386,VALID,0,VALID,23.5859,VALID,59,VALID,0.280469,
2009-02-09, 01:18:04,VALID,1000.59,VALID,0,VALID,94.5615,VALID,0,VALID,23.6054,VALID,59,VALID,0.346094,
2009-02-09, 01:19:04,VALID,1000.59,VALID,0,VALID,94.5539,VALID,0,VALID,23.6054,VALID,60,VALID,0.323047,
2009-02-09, 01:20:04,VALID,1000.61,VALID,0,VALID,94.5234,VALID,0,VALID,23.6054,VALID,60,VALID,0.375,
2009-02-09, 01:21:04,VALID,1000.6,VALID,0,VALID,94.5005,VALID,0,VALID,23.6054,VALID,60,VALID,0.275,
2009-02-09, 01:22:04,VALID,1000.61,VALID,0,VALID,94.4318,VALID,0,VALID,23.625,VALID,60,VALID,0.233594,
2009-02-09, 01:23:04,VALID,1000.59,VALID,0,VALID,94.4165,VALID,0,VALID,23.625,VALID,60,VALID,0.194531,
2009-02-09, 01:24:04,VALID,1000.64,VALID,0,VALID,94.4165,VALID,0,VALID,23.625,VALID,60,VALID,0.0886719,
2009-02-09, 01:25:04,VALID,1000.64,VALID,0,VALID,94.3937,VALID,0,VALID,23.625,VALID,60,VALID,0,
2009-02-09, 01:26:04,VALID,1000.64,VALID,0,VALID,94.4242,VALID,0,VALID,23.6054,VALID,60,VALID,0,
2009-02-09, 01:27:04,VALID,1000.64,VALID,0,VALID,94.4471,VALID,0,VALID,23.625,VALID,60,VALID,0,
2009-02-09, 01:28:04,VALID,1000.62,VALID,0,VALID,94.4852,VALID,0,VALID,23.6445,VALID,60,VALID,0.154687,
2009-02-09, 01:29:04,VALID,1000.56,VALID,0,VALID,94.5386,VALID,0,VALID,23.664,VALID,60,VALID,0.183203,
2009-02-09, 01:30:04,VALID,1000.58,VALID,0,VALID,94.4776,VALID,0,VALID,23.664,VALID,111,VALID,0.383594,
2009-02-09, 01:31:04,VALID,1000.56,VALID,0,VALID,94.4471,VALID,0,VALID,23.6835,VALID,111,VALID,0.461719,
2009-02-09, 01:32:04,VALID,1000.56,VALID,0,VALID,94.3631,VALID,0,VALID,23.703,VALID,111,VALID,0.415625,
2009-02-09, 01:33:04,VALID,1000.54,VALID,0,VALID,94.3097,VALID,0,VALID,23.703,VALID,111,VALID,0.417969,
2009-02-09, 01:34:04,VALID,1000.51,VALID,0,VALID,94.2563,VALID,0,VALID,23.742,VALID,111,VALID,0.311328,
2009-02-09, 01:35:04,VALID,1000.51,VALID,0,VALID,94.2258,VALID,0,VALID,23.7616,VALID,111,VALID,0.25625,
2009-02-09, 01:36:04,VALID,1000.48,VALID,0,VALID,94.1266,VALID,0,VALID,23.7402,VALID,111,VALID,0.264844,
2009-02-09, 01:37:04,VALID,1000.48,VALID,0,VALID,94.1037,VALID,0,VALID,23.7811,VALID,111,VALID,0.419531,
2009-02-09, 01:38:04,VALID,1000.49,VALID,0,VALID,94.0198,VALID,0,VALID,23.7811,VALID,120,VALID,0.489453,
2009-02-09, 01:39:04,VALID,1000.47,VALID,0,VALID,94.0122,VALID,0,VALID,23.8219,VALID,135,VALID,0.6,
2009-02-09, 01:40:04,VALID,1000.47,VALID,0,VALID,93.9054,VALID,0,VALID,23.8201,VALID,152,VALID,0.545313,
2009-02-09, 01:41:04,VALID,1000.45,VALID,0,VALID,93.8443,VALID,0,VALID,23.8201,VALID,152,VALID,0.374219,
2009-02-09, 01:42:04,VALID,1000.41,VALID,0,VALID,93.7909,VALID,0,VALID,23.8201,VALID,152,VALID,0.261719,
2009-02-09, 01:43:04,VALID,1000.39,VALID,0,VALID,93.7604,VALID,0,VALID,23.8396,VALID,152,VALID,0.0199219,
2009-02-09, 01:44:04,VALID,1000.36,VALID,0,VALID,93.7757,VALID,0,VALID,23.8396,VALID,152,VALID,0.396484,
2009-02-09, 01:45:04,VALID,1000.35,VALID,0,VALID,93.7223,VALID,0,VALID,23.8378,VALID,152,VALID,0.553125,
2009-02-09, 01:46:04,VALID,1000.38,VALID,0,VALID,93.6078,VALID,0,VALID,23.8396,VALID,152,VALID,0.519531,
2009-02-09, 01:47:04,VALID,1000.36,VALID,0,VALID,93.6002,VALID,0,VALID,23.8396,VALID,152,VALID,0.321094,
2009-02-09, 01:48:04,VALID,1000.34,VALID,0,VALID,93.5697,VALID,0,VALID,23.8591,VALID,152,VALID,0.241797,
2009-02-09, 01:49:04,VALID,1000.34,VALID,0,VALID,93.5926,VALID,0,VALID,23.8591,VALID,152,VALID,0.392969,
2009-02-09, 01:50:04,VALID,1000.31,VALID,0,VALID,93.562,VALID,0,VALID,23.8609,VALID,152,VALID,0.599609,
2009-02-09, 01:51:04,VALID,1000.3,VALID,0,VALID,93.5239,VALID,0,VALID,23.8396,VALID,148,VALID,0.692969,
2009-02-09, 01:52:04,VALID,1000.28,VALID,0,VALID,93.5239,VALID,0,VALID,23.8396,VALID,142,VALID,0.804297,
2009-02-09, 01:53:04,VALID,1000.29,VALID,0,VALID,93.5315,VALID,0,VALID,23.8396,VALID,131,VALID,0.799219,
2009-02-09, 01:54:04,VALID,1000.28,VALID,0,VALID,93.6002,VALID,0,VALID,23.8591,VALID,129,VALID,0.667969,
2009-02-09, 01:55:04,VALID,1000.26,VALID,0,VALID,93.6612,VALID,0,VALID,23.8396,VALID,125,VALID,0.634766,
2009-02-09, 01:56:04,VALID,1000.29,VALID,0,VALID,93.7223,VALID,0,VALID,23.8396,VALID,121,VALID,0.511328,
2009-02-09, 01:57:04,VALID,1000.31,VALID,0,VALID,93.7375,VALID,0,VALID,23.8201,VALID,116,VALID,0.477344,
2009-02-09, 01:58:04,VALID,1000.27,VALID,0,VALID,93.7757,VALID,0,VALID,23.8201,VALID,116,VALID,0.296875,
2009-02-09, 01:59:04,VALID,1000.29,VALID,0,VALID,93.8138,VALID,0,VALID,23.8219,VALID,116,VALID,0.235547,
2009-02-09, 02:00:04,VALID,1000.3,VALID,0,VALID,93.8596,VALID,0,VALID,23.7811,VALID,116,VALID,0.0675781,
2009-02-09, 02:01:04,VALID,1000.3,VALID,0,VALID,93.8596,VALID,0,VALID,23.7616,VALID,116,VALID,0,
2009-02-09, 02:02:04,VALID,1000.29,VALID,0,VALID,93.852,VALID,0,VALID,23.742,VALID,116,VALID,0,
2009-02-09, 02:03:04,VALID,1000.25,VALID,0,VALID,93.8443,VALID,0,VALID,23.7225,VALID,116,VALID,0,
2009-02-09, 02:04:04,VALID,1000.23,VALID,0,VALID,93.9435,VALID,0,VALID,23.703,VALID,116,VALID,0.0167969,
2009-02-09, 02:05:04,VALID,1000.24,VALID,0,VALID,94.0732,VALID,0,VALID,23.6835,VALID,116,VALID,0.102734,
2009-02-09, 02:06:04,VALID,1000.21,VALID,0,VALID,94.1571,VALID,0,VALID,23.6835,VALID,116,VALID,0.173828,
2009-02-09, 02:07:04,VALID,1000.22,VALID,0,VALID,94.2258,VALID,0,VALID,23.6835,VALID,116,VALID,0.204297,
2009-02-09, 02:08:04,VALID,1000.22,VALID,0,VALID,94.2411,VALID,0,VALID,23.664,VALID,116,VALID,0,
2009-02-09, 02:09:04,VALID,1000.23,VALID,0,VALID,94.2029,VALID,0,VALID,23.6445,VALID,116,VALID,0.141797,
2009-02-09, 02:10:04,VALID,1000.21,VALID,0,VALID,94.2411,VALID,0,VALID,23.625,VALID,116,VALID,0.0328125,
2009-02-09, 02:11:04,VALID,1000.21,VALID,0,VALID,94.2792,VALID,0,VALID,23.625,VALID,116,VALID,0,
2009-02-09, 02:12:04,VALID,1000.22,VALID,0,VALID,94.2945,VALID,0,VALID,23.625,VALID,116,VALID,0.003125,
2009-02-09, 02:13:04,VALID,1000.19,VALID,0,VALID,94.3174,VALID,0,VALID,23.6054,VALID,55,VALID,0.452734,
2009-02-09, 02:14:04,VALID,1000.18,VALID,0,VALID,94.3326,VALID,0,VALID,23.6054,VALID,54,VALID,0.357422,
2009-02-09, 02:15:04,VALID,1000.21,VALID,0,VALID,94.4547,VALID,0,VALID,23.6054,VALID,39,VALID,0.565625,
2009-02-09, 02:16:04,VALID,1000.21,VALID,0,VALID,94.5234,VALID,0,VALID,23.6054,VALID,33,VALID,0.749219,
2009-02-09, 02:17:04,VALID,1000.22,VALID,0,VALID,94.5234,VALID,0,VALID,23.6054,VALID,17,VALID,0.746094,
2009-02-09, 02:18:04,VALID,1000.24,VALID,0,VALID,94.5386,VALID,0,VALID,23.6054,VALID,4,VALID,0.622266,
2009-02-09, 02:19:04,VALID,1000.25,VALID,0,VALID,94.5539,VALID,0,VALID,23.6054,VALID,3,VALID,0.494922,
2009-02-09, 02:20:04,VALID,1000.24,VALID,0,VALID,94.6226,VALID,0,VALID,23.6054,VALID,3,VALID,0.435156,
2009-02-09, 02:21:04,VALID,1000.27,VALID,0,VALID,94.6683,VALID,0,VALID,23.6054,VALID,2,VALID,0.471094,
2009-02-09, 02:22:04,VALID,1000.24,VALID,0,VALID,94.7065,VALID,0,VALID,23.625,VALID,1,VALID,0.151953,
2009-02-09, 02:23:04,VALID,1000.26,VALID,0,VALID,94.6988,VALID,0,VALID,23.6036,VALID,1,VALID,0,
2009-02-09, 02:24:04,VALID,1000.27,VALID,0,VALID,94.6912,VALID,0,VALID,23.6054,VALID,1,VALID,0,
2009-02-09, 02:25:04,VALID,1000.27,VALID,0,VALID,94.7446,VALID,0,VALID,23.6054,VALID,1,VALID,0.283203,
2009-02-09, 02:26:04,VALID,1000.23,VALID,0,VALID,94.7599,VALID,0,VALID,23.6267,VALID,1,VALID,0.473828,
2009-02-09, 02:27:04,VALID,1000.2,VALID,0,VALID,94.7751,VALID,0,VALID,23.625,VALID,1,VALID,0.558984,
2009-02-09, 02:28:04,VALID,1000.21,VALID,0,VALID,94.7904,VALID,0,VALID,23.6054,VALID,1,VALID,0.547656,
2009-02-09, 02:29:04,VALID,1000.19,VALID,0,VALID,94.798,VALID,0,VALID,23.6054,VALID,1,VALID,0.522656,
2009-02-09, 02:30:04,VALID,1000.17,VALID,0,VALID,94.798,VALID,0,VALID,23.6054,VALID,1,VALID,0.64375,
2009-02-09, 02:31:04,VALID,1000.16,VALID,0,VALID,94.8057,VALID,0,VALID,23.5859,VALID,1,VALID,0.514844,
2009-02-09, 02:32:04,VALID,1000.17,VALID,0,VALID,94.8133,VALID,0,VALID,23.6054,VALID,1,VALID,0.632813,
2009-02-09, 02:33:04,VALID,1000.15,VALID,0,VALID,94.8285,VALID,0,VALID,23.6054,VALID,1,VALID,0.489062,
2009-02-09, 02:34:04,VALID,1000.16,VALID,0,VALID,94.8362,VALID,0,VALID,23.625,VALID,1,VALID,0.314063,
2009-02-09, 02:35:04,VALID,1000.16,VALID,0,VALID,94.8591,VALID,0,VALID,23.625,VALID,1,VALID,0.352344,
2009-02-09, 02:36:04,VALID,1000.11,VALID,0,VALID,94.8591,VALID,0,VALID,23.6232,VALID,1,VALID,0.318359,
2009-02-09, 02:37:04,VALID,1000.13,VALID,0,VALID,94.8591,VALID,0,VALID,23.6445,VALID,1,VALID,0.0285156,
2009-02-09, 02:38:04,VALID,1000.08,VALID,0,VALID,94.8438,VALID,0,VALID,23.6445,VALID,1,VALID,0.340625,
2009-02-09, 02:39:04,VALID,1000.09,VALID,0,VALID,94.7828,VALID,0,VALID,23.6445,VALID,1,VALID,0.519922,
2009-02-09, 02:40:04,VALID,1000.1,VALID,0,VALID,94.7446,VALID,0,VALID,23.664,VALID,1,VALID,0.610156,
2009-02-09, 02:41:04,VALID,1000.06,VALID,0,VALID,94.7675,VALID,0,VALID,23.703,VALID,30,VALID,0.628125,
2009-02-09, 02:42:04,VALID,1000.04,VALID,0,VALID,94.7141,VALID,0,VALID,23.7225,VALID,30,VALID,0.478906,
2009-02-09, 02:43:04,VALID,1000.03,VALID,0,VALID,94.6378,VALID,0,VALID,23.7225,VALID,30,VALID,0.410156,
2009-02-09, 02:44:04,VALID,1000.01,VALID,0,VALID,94.6302,VALID,0,VALID,23.742,VALID,30,VALID,0.379297,
2009-02-09, 02:45:04,VALID,1000.01,VALID,0,VALID,94.5997,VALID,0,VALID,23.742,VALID,30,VALID,0.461328,
2009-02-09, 02:46:04,VALID,999.971,VALID,0,VALID,94.592,VALID,0,VALID,23.742,VALID,31,VALID,0.410937,
2009-02-09, 02:47:04,VALID,999.991,VALID,0,VALID,94.5768,VALID,0,VALID,23.7616,VALID,31,VALID,0.487109,
2009-02-09, 02:48:04,VALID,999.977,VALID,0,VALID,94.4623,VALID,0,VALID,23.7616,VALID,43,VALID,0.697266,
2009-02-09, 02:49:04,VALID,999.966,VALID,0,VALID,94.4623,VALID,0,VALID,23.7811,VALID,54,VALID,0.866797,
2009-02-09, 02:50:04,VALID,999.969,VALID,0,VALID,94.4318,VALID,0,VALID,23.7793,VALID,69,VALID,0.845312,
2009-02-09, 02:51:04,VALID,999.972,VALID,0,VALID,94.4165,VALID,0,VALID,23.8006,VALID,65,VALID,0.733594,
2009-02-09, 02:52:04,VALID,999.95,VALID,0,VALID,94.4394,VALID,0.112286,VALID,23.8006,VALID,68,VALID,0.7125,
2009-02-09, 02:53:04,VALID,999.964,VALID,0,VALID,94.4776,VALID,0,VALID,23.7793,VALID,76,VALID,0.64375,
2009-02-09, 02:54:04,VALID,999.968,VALID,0,VALID,94.325,VALID,0,VALID,23.7811,VALID,80,VALID,0.911328,
2009-02-09, 02:55:04,VALID,999.985,VALID,0,VALID,94.3784,VALID,0,VALID,23.7811,VALID,80,VALID,0.444531,
2009-02-09, 02:56:04,VALID,999.976,VALID,0,VALID,94.3555,VALID,0,VALID,23.7616,VALID,80,VALID,0.275391,
2009-02-09, 02:57:04,VALID,1000.01,VALID,0,VALID,94.3937,VALID,0,VALID,23.7616,VALID,80,VALID,0.00195313,
2009-02-09, 02:58:04,VALID,1000,VALID,0,VALID,94.4242,VALID,0,VALID,23.7616,VALID,80,VALID,0.0453125,
2009-02-09, 02:59:04,VALID,999.971,VALID,0,VALID,94.4394,VALID,0,VALID,23.7402,VALID,94,VALID,0.596094,
2009-02-09, 03:00:04,VALID,1000.01,VALID,0,VALID,94.3097,VALID,0,VALID,23.742,VALID,106,VALID,0.520703,
2009-02-09, 03:01:04,VALID,1000.02,VALID,0,VALID,94.3555,VALID,0,VALID,23.7225,VALID,106,VALID,0.168359,
2009-02-09, 03:02:04,VALID,1000.01,VALID,0,VALID,94.3937,VALID,0,VALID,23.7225,VALID,106,VALID,0.166016,
2009-02-09, 03:03:04,VALID,999.997,VALID,0,VALID,94.3937,VALID,0,VALID,23.7225,VALID,106,VALID,0,
2009-02-09, 03:04:04,VALID,999.988,VALID,0,VALID,94.4165,VALID,0,VALID,23.7225,VALID,106,VALID,0.239063,
2009-02-09, 03:05:04,VALID,1000.03,VALID,0,VALID,94.4089,VALID,0,VALID,23.7225,VALID,106,VALID,0.237109,
2009-02-09, 03:06:04,VALID,999.998,VALID,0,VALID,94.4242,VALID,0,VALID,23.742,VALID,106,VALID,0.174219,
2009-02-09, 03:07:04,VALID,1000.01,VALID,0,VALID,94.4928,VALID,0,VALID,23.742,VALID,106,VALID,0,
2009-02-09, 03:08:04,VALID,999.98,VALID,0,VALID,94.5081,VALID,0,VALID,23.742,VALID,106,VALID,0,
2009-02-09, 03:09:04,VALID,999.972,VALID,0,VALID,94.5234,VALID,0,VALID,23.7402,VALID,106,VALID,0,
2009-02-09, 03:10:04,VALID,999.987,VALID,0,VALID,94.5386,VALID,0,VALID,23.7402,VALID,106,VALID,0,
2009-02-09, 03:11:04,VALID,999.995,VALID,0,VALID,94.5081,VALID,0,VALID,23.7616,VALID,106,VALID,0,
2009-02-09, 03:12:04,VALID,1000,VALID,0,VALID,94.531,VALID,0,VALID,23.7811,VALID,106,VALID,0.103906,
2009-02-09, 03:13:04,VALID,1000.01,VALID,0,VALID,94.5386,VALID,0,VALID,23.7616,VALID,106,VALID,0,
2009-02-09, 03:14:04,VALID,1000.01,VALID,0,VALID,94.531,VALID,0,VALID,23.7597,VALID,106,VALID,0.0921875,
2009-02-09, 03:15:04,VALID,1000,VALID,0,VALID,94.5234,VALID,0,VALID,23.7811,VALID,106,VALID,0.0628906,
2009-02-09, 03:16:04,VALID,999.978,VALID,0,VALID,94.5386,VALID,0,VALID,23.7811,VALID,106,VALID,0,
2009-02-09, 03:17:04,VALID,999.962,VALID,0,VALID,94.5386,VALID,0,VALID,23.7811,VALID,106,VALID,0.00507812,
2009-02-09, 03:18:04,VALID,999.954,VALID,0,VALID,94.5615,VALID,0,VALID,23.7793,VALID,106,VALID,0.304297,
2009-02-09, 03:19:04,VALID,999.975,VALID,0,VALID,94.5615,VALID,0,VALID,23.8006,VALID,106,VALID,0.327344,
2009-02-09, 03:20:04,VALID,999.951,VALID,0,VALID,94.5462,VALID,0,VALID,23.8006,VALID,106,VALID,0.601953,
2009-02-09, 03:21:04,VALID,999.936,VALID,0,VALID,94.5386,VALID,0,VALID,23.7988,VALID,107,VALID,0.695313,
2009-02-09, 03:22:04,VALID,999.952,VALID,0,VALID,94.531,VALID,0,VALID,23.8201,VALID,111,VALID,0.703516,
2009-02-09, 03:23:04,VALID,999.947,VALID,0,VALID,94.4394,VALID,0.112286,VALID,23.8183,VALID,122,VALID,0.766016,
2009-02-09, 03:24:04,VALID,999.965,VALID,0,VALID,94.4089,VALID,0,VALID,23.7988,VALID,127,VALID,0.717188,
2009-02-09, 03:25:04,VALID,999.955,VALID,0,VALID,94.386,VALID,0,VALID,23.7793,VALID,128,VALID,0.669141,
2009-02-09, 03:26:04,VALID,1000.02,VALID,0,VALID,94.4089,VALID,0,VALID,23.8006,VALID,128,VALID,0.616016,
2009-02-09, 03:27:04,VALID,1000.03,VALID,0,VALID,94.4547,VALID,0,VALID,23.7988,VALID,128,VALID,0.460547,
2009-02-09, 03:28:04,VALID,1000.04,VALID,0,VALID,94.4852,VALID,0,VALID,23.8201,VALID,128,VALID,0.276563,
2009-02-09, 03:29:04,VALID,1000.06,VALID,0,VALID,94.5157,VALID,0,VALID,23.8201,VALID,128,VALID,0.326172,
2009-02-09, 03:30:04,VALID,1000.04,VALID,0,VALID,94.5386,VALID,0,VALID,23.8201,VALID,128,VALID,0.383203,
2009-02-09, 03:31:04,VALID,1000.05,VALID,0,VALID,94.5157,VALID,0,VALID,23.7988,VALID,102,VALID,0.514844,
2009-02-09, 03:32:04,VALID,1000.07,VALID,0,VALID,94.5234,VALID,0,VALID,23.8201,VALID,92,VALID,0.371484,
2009-02-09, 03:33:04,VALID,1000.08,VALID,0,VALID,94.5157,VALID,0,VALID,23.8183,VALID,92,VALID,0.322656,
2009-02-09, 03:34:04,VALID,1000.11,VALID,0,VALID,94.5005,VALID,0,VALID,23.8396,VALID,92,VALID,0.233594,
2009-02-09, 03:35:04,VALID,1000.08,VALID,0,VALID,94.4928,VALID,0,VALID,23.7988,VALID,92,VALID,0.162109,
2009-02-09, 03:36:04,VALID,1000.08,VALID,0,VALID,94.4928,VALID,0,VALID,23.8201,VALID,92,VALID,0.228906,
2009-02-09, 03:37:04,VALID,1000.1,VALID,0,VALID,94.5157,VALID,0,VALID,23.8201,VALID,92,VALID,0.233203,
2009-02-09, 03:38:04,VALID,1000.07,VALID,0,VALID,94.4852,VALID,0,VALID,23.8201,VALID,92,VALID,0.176953,
2009-02-09, 03:39:04,VALID,1000.07,VALID,0,VALID,94.4776,VALID,0,VALID,23.8396,VALID,92,VALID,0,
2009-02-09, 03:40:04,VALID,1000.1,VALID,0,VALID,94.4623,VALID,0,VALID,23.8201,VALID,92,VALID,0,
2009-02-09, 03:41:04,VALID,1000.09,VALID,0,VALID,94.4547,VALID,0,VALID,23.8183,VALID,92,VALID,0,
2009-02-09, 03:42:04,VALID,1000.08,VALID,0,VALID,94.47,VALID,0,VALID,23.7988,VALID,92,VALID,0,
2009-02-09, 03:43:04,VALID,1000.12,VALID,0,VALID,94.5615,VALID,0,VALID,23.8201,VALID,92,VALID,0.194141,
2009-02-09, 03:44:04,VALID,1000.1,VALID,0,VALID,94.6607,VALID,0,VALID,23.8396,VALID,92,VALID,0.325,
2009-02-09, 03:45:04,VALID,1000.17,VALID,0,VALID,94.6683,VALID,0,VALID,23.8591,VALID,110,VALID,0.519141,
2009-02-09, 03:46:04,VALID,1000.14,VALID,0,VALID,94.676,VALID,0,VALID,23.8786,VALID,116,VALID,0.422266,
2009-02-09, 03:47:04,VALID,1000.17,VALID,0,VALID,94.676,VALID,0,VALID,23.8591,VALID,116,VALID,0.351172,